Theta_e
294 297 296 295 296 295 291 292 292 297 291 297 300 301 304 314 322 324 325 326 327 326 327 330 333 334 335 337 340 344 346 347 348 350 351 352 352 353 350 349 349 348 349 350
295 300 299 297 297 297 294 294 293 294 294 301 303 306 317 319 321 322 325 328 329 330 335 337 338 339 342 343 344 346 346 347 349 351 351 349 346 345 346 347 347 348 348 348
292 296 297 295 296 297 296 303 300 292 299 308 308 311 313 319 321 323 326 330 331 334 337 339 340 341 341 341 343 344 343 343 344 345 343 343 345 345 344 346 347 346 345 347
292 294 289 297 304 304 304 306 306 307 309 310 311 313 315 318 324 324 329 332 333 338 340 341 340 339 338 340 340 339 338 338 342 342 342 344 344 344 345 345 343 342 342 339
291 290 295 301 306 305 301 301 308 308 309 311 313 315 319 321 324 324 333 336 337 341 342 340 339 339 339 339 340 340 339 340 343 344 342 342 341 340 342 339 339 340 336 332
290 288 288 298 308 311 310 296 309 311 309 309 310 304 309 318 322 327 328 339 340 342 342 340 339 340 338 337 339 340 341 342 342 341 339 338 338 338 339 338 337 337 332 330
290 289 293 304 308 310 296 298 309 312 311 310 306 309 314 318 326 332 329 340 342 341 340 339 339 338 336 336 337 339 341 340 337 336 336 336 333 332 333 332 334 336 333 331
289 287 288 306 305 299 304 308 311 313 313 311 311 312 314 319 327 333 332 339 342 339 337 338 338 337 333 333 334 337 337 336 332 333 333 329 328 327 328 328 328 330 331 329
293 292 300 306 305 308 309 308 310 312 314 314 313 312 313 318 327 331 336 338 340 340 336 336 335 335 332 330 335 334 334 333 330 330 329 327 326 324 323 325 326 326 326 322
295 297 301 305 307 308 311 313 313 314 314 314 313 313 313 315 325 327 334 337 338 334 332 331 331 332 333 330 334 333 331 330 328 327 325 324 324 323 322 322 322 321 319 316
294 297 300 303 305 308 310 312 313 313 314 314 314 313 314 316 320 325 326 329 331 331 331 328 327 325 326 327 329 328 328 327 327 326 322 318 316 316 317 317 319 318 316 314
293 298 298 299 304 307 307 307 310 311 311 313 314 312 314 316 321 322 323 325 325 325 324 325 326 325 326 327 327 325 322 322 325 323 320 317 316 311 306 305 301 299 298 305
299 302 301 303 306 308 306 307 309 310 312 312 313 314 315 319 324 321 323 323 322 321 320 321 321 319 319 318 318 318 318 318 321 320 319 317 315 313 308 305 302 300 298 297
303 301 299 302 301 306 307 309 311 313 313 313 314 316 316 320 323 321 322 322 322 321 321 321 320 318 318 317 315 315 315 311 318 317 317 314 313 312 311 310 309 309 302 299
304 306 305 306 307 306 307 308 309 309 311 311 314 314 317 320 321 321 323 323 322 321 320 319 318 317 318 318 316 316 315 313 313 312 311 310 310 309 308 307 307 307 305 302
304 305 306 306 306 307 307 307 307 308 310 311 312 315 319 322 322 322 321 320 317 317 319 319 317 316 317 316 315 313 312 312 310 309 307 306 306 305 304 304 303 302 301 300
303 302 303 303 304 306 307 308 309 310 310 310 312 315 319 323 323 321 320 321 320 319 319 318 317 317 316 315 313 310 309 308 308 305 304 303 302 302 302 302 301 301 301 301
306 307 307 306 305 306 308 310 310 309 310 312 313 315 317 322 320 320 321 320 317 316 316 314 314 314 312 310 308 307 305 303 302 301 301 300 300 301 300 300 300 299 299 300
310 309 310 310 310 310 310 310 309 310 312 312 312 313 318 321 322 321 319 317 315 313 310 311 314 310 307 308 306 304 302 301 300 299 300 299 298 298 298 298 298 298 297 297
310 310 310 311 312 312 310 310 311 311 312 312 313 315 317 319 320 319 318 316 316 316 310 312 309 308 308 308 306 303 302 301 299 298 298 298 298 298 298 296 298 297 297 297
309 309 309 310 310 312 311 310 309 310 312 313 314 316 318 320 320 318 315 312 309 311 310 311 308 306 305 305 303 302 301 300 299 298 297 297 298 297 297 296 296 296 297 298
309 309 309 310 311 311 312 311 311 311 312 314 317 318 320 319 319 317 317 308 309 309 307 305 305 306 305 303 300 300 299 298 297 297 297 297 297 297 296 296 296 296 297 298
309 310 310 310 309 312 314 312 312 313 315 318 318 319 318 316 317 311 306 310 310 307 306 304 307 307 304 301 300 300 299 298 297 297 297 297 297 297 297 297 297 298 299 298
310 310 310 309 309 311 310 312 315 317 314 316 319 319 316 314 312 314 311 308 306 306 305 306 306 305 303 301 301 300 299 299 298 298 298 295 297 297 297 297 297 298 298 296
309 308 310 308 308 309 311 312 313 314 315 314 314 315 318 317 313 312 310 308 305 306 307 306 305 304 303 302 302 301 301 300 300 299 298 298 297 296 297 297 297 297 296 296
307 306 308 309 308 309 310 312 310 311 313 312 312 313 314 315 314 313 311 308 308 307 307 307 305 304 304 304 303 303 302 302 301 300 299 299 298 297 297 297 297 297 297 297
306 303 307 306 307 307 306 306 308 308 310 312 310 312 312 313 312 312 309 309 308 308 308 308 307 305 305 305 305 304 304 303 300 302 301 300 299 299 298 298 298 298 297 297
Wind_Speed
6 8 4 6 9 7 9 8 10 12 11 12 7 9 8 10 5 6 7 9 9 9 8 7 8 8 7 7 7 7 8 8 9 6 7 6 6 6 5 3 3 3 3 4
4 5 4 6 8 9 8 5 9 6 7 2 9 8 5 8 6 9 8 8 8 8 9 10 10 9 7 8 8 8 9 9 7 7 7 8 7 7 5 3 1 2 3 5
5 4 8 6 3 6 2 5 2 5 3 8 8 11 5 8 8 11 10 11 13 13 11 10 10 9 9 7 5 6 6 6 6 7 8 8 7 6 4 3 3 4 6 5
5 3 7 4 4 3 9 1 3 3 9 10 11 14 11 5 6 8 6 7 9 9 9 9 8 7 8 8 8 9 8 8 8 9 9 8 7 7 6 4 5 5 6 6
4 6 5 3 2 3 4 3 3 2 8 8 16 3 1 14 11 7 9 3 3 5 11 8 11 10 10 10 10 10 10 10 10 10 10 9 8 7 6 6 6 7 5 6
2 3 7 6 2 3 3 5 4 2 4 7 12 6 6 14 12 12 11 4 6 6 3 10 11 11 11 11 10 10 10 10 9 8 9 9 7 6 4 6 7 7 8 7
4 5 8 3 4 5 4 6 3 2 3 3 2 5 9 14 12 9 8 7 9 7 7 6 9 12 11 10 10 8 9 9 8 7 9 8 7 5 6 7 6 7 8 6
2 3 8 4 4 0 4 5 4 4 4 4 6 9 10 13 10 9 5 4 7 11 10 8 9 10 11 11 8 10 11 10 7 7 7 6 9 6 7 7 7 5 6 5
8 7 3 3 4 5 5 6 6 5 6 6 8 8 9 9 10 7 4 3 3 5 7 10 9 9 11 8 11 12 12 11 9 7 7 6 7 7 6 5 5 5 4 5
2 4 4 5 8 6 7 7 7 8 10 7 9 9 12 11 8 6 3 5 7 7 8 8 9 9 10 10 9 10 12 11 9 9 7 6 5 4 5 4 5 6 6 5
6 7 12 7 3 4 7 6 8 8 7 9 8 11 8 10 12 6 4 1 4 9 9 7 4 7 9 10 9 7 9 9 8 8 8 8 7 5 5 4 5 6 5 4
11 10 10 8 12 6 9 13 10 11 10 7 5 9 7 9 6 4 1 3 6 7 9 7 4 7 5 5 8 11 7 7 6 7 7 7 6 6 14 12 15 14 11 6
9 7 6 12 12 15 17 18 15 10 11 9 8 6 6 5 3 2 2 7 9 11 13 12 9 12 12 9 13 8 7 8 7 7 8 7 5 6 6 4 7 8 9 8
7 5 8 9 9 11 6 12 11 8 9 11 10 6 5 5 3 5 7 8 11 13 13 15 15 13 11 13 12 12 11 12 4 6 8 6 4 5 4 3 3 3 6 9
7 6 10 12 13 15 12 10 11 10 9 8 7 8 5 5 6 7 7 8 11 13 14 14 15 14 14 14 15 11 11 5 3 4 6 8 5 5 4 4 4 4 3 6
12 12 12 13 13 12 10 10 9 12 8 8 7 8 6 6 7 9 10 9 12 10 10 12 15 15 15 16 14 13 8 12 9 6 6 5 4 4 5 4 4 5 4 5
13 12 10 11 12 12 12 11 7 9 7 8 8 5 5 7 9 10 11 8 6 10 6 5 5 7 10 12 14 12 8 6 11 7 6 5 4 3 5 5 5 4 4 4
13 15 15 16 15 14 15 14 11 9 8 9 4 6 6 11 12 13 13 9 10 10 9 6 4 6 10 10 13 11 8 7 6 6 5 5 5 4 4 5 5 5 4 5
10 12 14 13 14 14 13 13 12 8 7 6 5 7 8 8 10 10 9 13 12 12 8 10 16 11 10 15 14 9 9 9 8 7 7 7 4 5 5 5 7 5 4 3
11 12 14 15 14 12 11 9 8 7 6 5 5 7 8 8 8 11 15 14 11 8 12 15 12 11 11 15 16 8 9 9 8 7 6 6 5 5 5 7 6 4 3 4
12 15 16 16 17 11 10 8 5 6 5 6 8 9 9 7 8 7 16 9 7 12 12 16 11 9 8 11 10 8 9 8 8 7 6 6 6 5 4 3 5 4 4 4
12 14 15 17 8 3 4 5 5 5 5 7 7 6 8 9 10 11 12 13 9 16 8 8 8 13 12 17 8 9 8 8 6 6 6 5 4 4 4 3 4 4 3 3
9 12 13 14 12 6 4 3 2 2 4 4 7 7 6 3 7 13 11 11 12 12 9 8 15 20 18 8 8 8 8 8 7 6 6 5 5 4 3 3 4 3 3 4
7 9 12 11 13 13 14 9 6 8 9 12 3 6 8 9 7 8 11 15 18 15 11 13 16 19 14 8 7 7 7 8 7 6 6 6 5 4 3 3 3 2 4 5
8 8 8 9 12 10 10 10 9 8 8 11 11 10 8 10 6 8 8 10 15 13 11 17 19 16 8 9 8 7 7 7 6 6 5 5 4 3 3 3 2 2 3 3
9 6 5 8 7 7 6 8 7 6 5 6 6 6 6 6 8 7 8 11 10 12 10 10 9 7 7 8 8 7 6 7 7 6 7 6 6 5 4 3 3 3 3 2
4 5 5 5 5 5 5 4 4 4 5 4 5 3 4 4 5 7 9 8 9 8 8 8 7 7 7 7 8 8 7 6 7 7 7 6 5 5 6 5 5 4 3 2
Wind_Direction
238 251 215 242 262 229 201 220 190 241 210 245 271 268 267 268 235 202 200 176 183 181 187 178 176 186 186 190 178 165 177 187 204 181 179 153 149 142 133 143 191 270 313 316
277 267 284 260 255 263 230 226 262 259 258 323 292 277 274 255 230 206 214 200 178 174 172 173 177 180 167 175 184 169 178 187 158 159 148 146 143 123 140 163 280 357 350 346
263 338 311 316 268 258 201 72 320 215 301 331 311 315 312 284 226 220 207 193 184 184 179 175 169 163 169 159 133 135 128 120 128 130 128 126 127 125 163 142 108 54 27 3
242 353 244 206 354 114 112 15 353 330 331 308 287 285 293 298 315 286 251 208 181 178 171 167 152 138 128 133 130 127 125 128 132 130 130 135 137 141 133 115 83 66 46 34
192 208 305 298 81 67 36 295 313 305 323 317 320 244 273 23 357 316 299 217 285 275 167 147 149 143 137 132 131 133 138 143 146 140 138 139 136 136 129 108 95 83 71 62
112 250 240 230 115 301 166 262 209 238 322 330 346 33 291 331 332 313 303 192 150 148 187 148 152 148 139 137 139 144 151 145 140 138 134 133 134 128 115 107 111 108 94 80
227 239 281 311 256 273 160 255 208 194 238 304 347 221 269 303 308 291 262 207 140 140 167 168 150 146 143 145 156 142 129 128 130 129 128 127 118 115 118 113 114 116 102 88
105 185 273 343 357 331 270 317 278 278 271 261 256 283 281 291 292 319 321 166 179 165 160 158 159 152 151 157 145 135 132 125 117 119 122 118 115 111 112 117 110 109 105 91
179 219 260 309 246 263 274 269 284 279 266 269 285 292 301 298 309 321 122 152 166 183 171 160 165 165 157 150 149 143 135 130 122 120 114 113 117 119 111 109 105 97 83 74
12 278 246 258 279 278 269 257 282 283 287 291 281 290 299 301 306 312 328 160 151 147 170 210 171 169 153 149 153 146 134 130 127 124 113 95 82 75 94 102 97 94 90 72
272 304 305 297 238 273 302 264 263 263 252 252 252 266 268 298 306 308 310 30 137 159 184 184 215 128 135 132 130 128 125 122 117 113 107 91 66 60 85 44 90 109 97 83
263 245 238 258 286 278 287 291 292 287 293 282 248 274 290 284 288 285 235 107 98 98 102 94 90 85 65 344 137 140 128 111 114 113 107 106 101 83 43 63 71 69 59 67
262 268 230 259 268 279 280 283 274 273 267 273 271 245 276 281 293 259 148 130 121 113 106 100 103 82 56 49 95 43 86 103 107 125 117 121 124 121 121 67 73 81 69 62
266 280 284 256 254 270 269 263 260 247 255 263 259 259 260 264 189 197 160 148 130 122 117 118 116 112 116 93 79 107 91 59 115 135 117 114 123 124 130 136 122 89 65 46
238 227 245 269 283 275 270 262 258 255 248 260 253 255 249 244 183 183 169 153 137 132 130 133 123 130 132 136 119 116 103 106 110 85 105 106 124 115 113 109 108 87 47 15
285 283 273 261 273 280 286 269 241 263 261 258 251 237 236 218 181 169 166 174 149 158 151 149 142 148 146 139 129 100 106 141 136 127 102 112 126 124 112 105 96 90 65 25
291 285 287 282 285 284 281 280 250 250 267 254 254 232 230 201 177 179 185 198 172 156 120 88 134 143 137 134 130 119 126 128 127 98 114 122 113 119 127 121 107 87 77 49
262 269 268 258 268 276 280 277 276 252 248 263 232 210 223 191 193 194 187 165 125 116 124 121 117 147 130 130 124 112 118 120 110 110 113 119 131 120 114 104 84 74 56 45
302 303 301 275 261 255 258 260 261 256 244 239 198 218 214 204 191 177 150 148 151 146 132 125 139 131 126 126 106 111 116 118 118 119 122 115 112 107 105 108 84 65 48 48
303 306 298 289 282 255 247 243 255 255 248 224 205 205 215 199 185 174 159 161 161 135 131 125 127 125 121 119 115 115 117 121 121 119 120 125 113 103 89 75 88 84 67 51
322 317 311 308 299 253 229 244 244 253 250 222 206 204 211 188 148 161 141 132 104 119 117 123 129 120 107 114 111 118 114 119 124 122 118 110 107 86 80 98 95 85 58 40
315 317 322 321 324 270 233 244 244 260 245 227 220 194 187 186 164 159 150 130 119 117 128 118 114 126 130 120 116 113 108 111 108 112 110 110 115 131 141 117 87 58 39 38
310 322 335 351 349 14 32 38 357 260 255 222 196 184 180 119 166 129 126 144 138 143 130 127 131 127 122 116 114 116 129 127 130 125 124 127 124 118 100 82 79 99 73 44
334 348 351 358 352 33 38 20 44 78 63 43 128 95 127 117 97 90 121 141 133 139 137 133 133 130 126 123 124 139 140 135 136 136 132 125 115 117 116 118 86 59 58 52
351 345 1 12 6 9 14 36 46 46 53 57 47 34 89 72 73 123 133 129 134 130 128 134 138 140 139 140 149 160 157 142 146 140 128 118 131 140 142 124 98 132 99 101
3 349 351 6 360 340 8 30 34 22 48 56 53 40 31 80 102 107 125 133 135 129 134 145 153 153 161 145 154 155 165 149 163 161 155 156 158 151 144 152 179 178 146 158
349 348 355 16 14 6 18 357 9 21 2 59 81 66 93 99 109 123 135 132 137 138 144 148 157 164 160 153 166 171 175 172 188 177 161 169 163 165 168 187 188 192 159 191